User: anonymous   Login
Location: Unspecified
(0.0000°N, 0.0000°E)
Time: 19:57:14
(UTC+00:00)
Language:

COSMOS 2481 - Orbit

View from above orbital plane
View from above orbital plane
View from above satellite
View from above satellite

Ground track
Ground track

The orbit data is extracted from the following two-line orbital elements,

1 38733U 12041A   18171.69174631  .00000014  00000-0  31297-4 0  9998
2 38733  82.4742  94.6722 0017985 315.6534  44.3108 12.42374113267429
Epoch (UTC): 20 June 2018 16:36:06
Eccentricity: 0.0017985
inclination: 82.4742°
perigee height: 1482 km
apogee height: 1511 km
right ascension of ascending node: 94.6722°
argument of perigee: 315.6534°
revolutions per day: 12.42374113
mean anomaly at epoch: 44.3108°
orbit number at epoch: 26742

The dashed part of the orbit path shows where the satellite is in the earth's shadow,  

DLR